Weather History for PAIN - May, 2013

Change the Weather History Date:

Saturday, May 4, 2013

  Actual Average Record
Temperature  
Mean Temperature 26 °F -  
Max Temperature 30 °F 45 °F 66 °F (2004)
Min Temperature 23 °F 25 °F 3 °F (1992)
Degree Days  
Heating Degree Days 38    
Moisture  
Dew Point 21 °F    
Average Humidity 79    
Maximum Humidity 93    
Minimum Humidity 69    
Precipitation  
Precipitation 0.00 in - - ()
Sea Level Pressure  
Sea Level Pressure 29.87 in    
Wind  
Wind Speed 7 mph (North)    
Max Wind Speed 15 mph    
Max Gust Speed 21 mph    
Visibility 8 miles    
Events      
Averages and records for this station are not official NWS values.
T = Trace of Precipitation, MM = Missing Value Source: NWS Daily Summary

Daily Weather History Graph

Daily Weather History Graph

Search for Another Location

Airport or City:

Trip Planner

Search our weather history database for the weather conditions in past years. The results will help you decide how hot, cold, wet, or windy it might be!

Date:

Astronomy

May. 04, 2013 Rise Set
Actual Time 5:19 AM AKDT 10:27 PM AKDT
Civil Twilight 4:07 AM AKDT 11:40 PM AKDT
Nautical Twilight 2:24 AM AKDT 1:19 AM AKDT
Astronomical Twilight Sun does not set Sun does not set
Moon 4:11 AM AKDT 3:56 PM AKDT
Length of Visible Light 19h 33m
Length of Day
17h 08m
Waning Crescent, 25% of the Moon is Illuminated
May 4
Waning Crescent
May 9
New
May 17
First Quarter
May 24
Full
May 31
Last Quarter

Hourly Weather History & Observations

Time (AKDT) Temp. Windchill Dew Point Humidity Pressure Visibility Wind Dir Wind Speed Gust Speed Precip Events Conditions
12:16 AM 24.8 °F 16.1 °F 21.2 °F 86% 29.91 in 5.0 mi North 8.1 mph - N/A   Overcast
12:36 AM 24.8 °F 16.1 °F 21.2 °F 86% 29.92 in 7.0 mi NNE 8.1 mph - N/A   Overcast
12:56 AM 24.8 °F 16.9 °F 21.2 °F 86% 29.92 in 5.0 mi North 6.9 mph - N/A   Overcast
1:16 AM 24.8 °F 17.9 °F 23.0 °F 93% 29.91 in 5.0 mi North 5.8 mph - N/A   Overcast
1:36 AM 24.8 °F 16.9 °F 23.0 °F 93% 29.91 in 5.0 mi North 6.9 mph - N/A   Overcast
1:56 AM 24.8 °F 17.9 °F 23.0 °F 93% 29.91 in 7.0 mi North 5.8 mph - N/A   Overcast
2:16 AM 24.8 °F 19.1 °F 21.2 °F 86% 29.91 in 5.0 mi North 4.6 mph - N/A   Overcast
2:36 AM 24.8 °F 16.9 °F 21.2 °F 86% 29.91 in 9.0 mi NNE 6.9 mph - N/A   Overcast
2:56 AM 24.8 °F 19.1 °F 21.2 °F 86% 29.91 in 9.0 mi North 4.6 mph - N/A   Overcast
3:16 AM 23.0 °F 15.8 °F 21.2 °F 93% 29.90 in 7.0 mi North 5.8 mph - N/A   Overcast
3:36 AM 23.0 °F 15.8 °F 21.2 °F 93% 29.90 in 7.0 mi North 5.8 mph - N/A   Overcast
3:56 AM 23.0 °F 17.0 °F 21.2 °F 93% 29.90 in 9.0 mi NNE 4.6 mph - N/A   Overcast
4:16 AM 23.0 °F 17.0 °F 21.2 °F 93% 29.89 in 10.0 mi North 4.6 mph - N/A   Mostly Cloudy
4:36 AM 23.0 °F 15.8 °F 21.2 °F 93% 29.89 in 10.0 mi North 5.8 mph - N/A   Mostly Cloudy
4:56 AM 23.0 °F 17.0 °F 21.2 °F 93% 29.89 in 8.0 mi North 4.6 mph - N/A   Overcast
5:16 AM 23.0 °F 15.8 °F 21.2 °F 93% 29.88 in 10.0 mi North 5.8 mph - N/A   Mostly Cloudy
5:36 AM 23.0 °F 15.8 °F 21.2 °F 93% 29.88 in 10.0 mi North 5.8 mph - N/A   Mostly Cloudy
5:56 AM 23.0 °F 15.8 °F 21.2 °F 93% 29.87 in 10.0 mi North 5.8 mph - N/A   Overcast
6:16 AM 23.0 °F 17.0 °F 21.2 °F 93% 29.87 in 10.0 mi North 4.6 mph - N/A   Overcast
6:36 AM 23.0 °F 15.8 °F 21.2 °F 93% 29.87 in 8.0 mi North 5.8 mph - N/A   Overcast
6:56 AM 23.0 °F 15.8 °F 21.2 °F 93% 29.87 in 10.0 mi North 5.8 mph - N/A   Overcast
7:16 AM 24.8 °F 20.5 °F 21.2 °F 86% 29.86 in 10.0 mi North 3.5 mph - N/A   Overcast
7:36 AM 24.8 °F 19.1 °F 21.2 °F 86% 29.86 in 10.0 mi North 4.6 mph - N/A   Overcast
7:56 AM 24.8 °F - 21.2 °F 86% 29.86 in 9.0 mi Calm Calm - N/A   Overcast
8:16 AM 24.8 °F - 21.2 °F 86% 29.85 in 10.0 mi Calm Calm - N/A   Overcast
8:36 AM 26.6 °F - 21.2 °F 80% 29.85 in 10.0 mi Calm Calm - N/A   Mostly Cloudy
8:56 AM 26.6 °F 21.2 °F 21.2 °F 80% 29.84 in 10.0 mi NNE 4.6 mph - N/A   Partly Cloudy
9:16 AM 28.4 °F 20.4 °F 21.2 °F 74% 29.84 in 10.0 mi North 8.1 mph - N/A   Mostly Cloudy
9:36 AM 28.4 °F 21.2 °F 21.2 °F 74% 29.83 in 10.0 mi NNE 6.9 mph - N/A   Overcast
9:56 AM 28.4 °F 22.2 °F 21.2 °F 74% 29.83 in 10.0 mi North 5.8 mph - N/A   Overcast
10:16 AM 28.4 °F 20.4 °F 21.2 °F 74% 29.82 in 9.0 mi North 8.1 mph - N/A   Overcast
10:36 AM 28.4 °F 20.4 °F 21.2 °F 74% 29.82 in 10.0 mi North 8.1 mph - N/A   Overcast
10:56 AM 28.4 °F 19.7 °F 21.2 °F 74% 29.82 in 8.0 mi North 9.2 mph - N/A   Overcast
11:16 AM 28.4 °F 19.7 °F 21.2 °F 74% 29.81 in 9.0 mi North 9.2 mph - N/A   Overcast
11:36 AM 28.4 °F 19.7 °F 21.2 °F 74% 29.81 in 10.0 mi North 9.2 mph - N/A   Overcast
11:56 AM 28.4 °F 19.1 °F 21.2 °F 74% 29.81 in 8.0 mi North 10.4 mph - N/A   Overcast
12:16 PM 28.4 °F 19.1 °F 21.2 °F 74% 29.81 in 9.0 mi North 10.4 mph 17.3 mph N/A   Overcast
12:36 PM 30.2 °F 21.3 °F 21.2 °F 69% 29.81 in 8.0 mi North 10.4 mph 17.3 mph N/A   Overcast
12:56 PM 28.4 °F 18.5 °F 21.2 °F 74% 29.82 in 8.0 mi North 11.5 mph 16.1 mph N/A   Overcast
1:16 PM 28.4 °F 18.5 °F 21.2 °F 74% 29.81 in 10.0 mi NNE 11.5 mph - N/A   Overcast
1:36 PM 28.4 °F 18.5 °F 21.2 °F 74% 29.82 in 10.0 mi North 11.5 mph 16.1 mph N/A   Overcast
1:56 PM 30.2 °F 21.3 °F 21.2 °F 69% 29.82 in 5.0 mi North 10.4 mph 16.1 mph N/A   Overcast
2:16 PM 30.2 °F 20.8 °F 21.2 °F 69% 29.82 in 7.0 mi North 11.5 mph - N/A   Overcast
2:36 PM 30.2 °F 21.3 °F 21.2 °F 69% 29.82 in 5.0 mi North 10.4 mph 17.3 mph N/A   Overcast
2:56 PM 30.2 °F 22.6 °F 21.2 °F 69% 29.82 in 10.0 mi NNE 8.1 mph - N/A   Overcast
3:16 PM 30.2 °F 20.8 °F 21.2 °F 69% 29.82 in 10.0 mi NNE 11.5 mph 18.4 mph N/A   Overcast
3:36 PM 30.2 °F 20.2 °F 21.2 °F 69% 29.82 in 6.0 mi North 12.7 mph 19.6 mph N/A   Overcast
3:56 PM 28.4 °F 18.0 °F 21.2 °F 74% 29.83 in 4.0 mi NNE 12.7 mph 19.6 mph N/A   Overcast
4:16 PM 30.2 °F 20.8 °F 21.2 °F 69% 29.83 in 3.0 mi North 11.5 mph 19.6 mph N/A   Overcast
4:36 PM 28.4 °F 19.1 °F 21.2 °F 74% 29.83 in 3.0 mi NNE 10.4 mph 20.7 mph N/A   Overcast
4:56 PM 30.2 °F 20.8 °F 21.2 °F 69% 29.83 in 5.0 mi North 11.5 mph 17.3 mph N/A   Overcast
5:16 PM 28.4 °F 18.0 °F 21.2 °F 74% 29.84 in 4.0 mi North 12.7 mph 18.4 mph N/A   Overcast
5:36 PM 28.4 °F 17.0 °F 21.2 °F 74% 29.84 in 4.0 mi NNE 15.0 mph 19.6 mph N/A   Overcast
5:56 PM 28.4 °F 18.5 °F 21.2 °F 74% 29.85 in 3.0 mi North 11.5 mph 18.4 mph N/A   Overcast
6:16 PM 28.4 °F 18.0 °F 21.2 °F 74% 29.85 in 4.0 mi NNE 12.7 mph 19.6 mph N/A   Overcast
6:36 PM 28.4 °F 19.1 °F 21.2 °F 74% 29.86 in 6.0 mi North 10.4 mph 17.3 mph N/A   Overcast
6:56 PM 28.4 °F 19.1 °F 21.2 °F 74% 29.86 in 10.0 mi North 10.4 mph 16.1 mph N/A   Overcast
7:16 PM 28.4 °F 20.4 °F 21.2 °F 74% 29.87 in 9.0 mi North 8.1 mph - N/A   Overcast
7:36 PM 28.4 °F 19.7 °F 21.2 °F 74% 29.88 in 10.0 mi North 9.2 mph - N/A   Overcast
7:56 PM 28.4 °F 19.7 °F 21.2 °F 74% 29.88 in 10.0 mi North 9.2 mph 16.1 mph N/A   Overcast
8:16 PM 28.4 °F 19.7 °F 21.2 °F 74% 29.88 in 8.0 mi North 9.2 mph - N/A   Overcast
8:36 PM 28.4 °F 20.4 °F 21.2 °F 74% 29.89 in 9.0 mi North 8.1 mph - N/A   Overcast
8:56 PM 28.4 °F 21.2 °F 21.2 °F 74% 29.89 in 10.0 mi North 6.9 mph - N/A   Overcast
9:16 PM 28.4 °F 21.2 °F 21.2 °F 74% 29.90 in 10.0 mi North 6.9 mph - N/A   Overcast
9:36 PM 28.4 °F 22.2 °F 21.2 °F 74% 29.90 in 9.0 mi North 5.8 mph - N/A   Overcast
9:56 PM 26.6 °F 20.0 °F 21.2 °F 80% 29.91 in 10.0 mi North 5.8 mph - N/A   Overcast
10:16 PM 26.6 °F - 19.4 °F 74% 29.92 in 10.0 mi Calm Calm - N/A   Overcast
10:36 PM 26.6 °F 22.6 °F 19.4 °F 74% 29.92 in 10.0 mi North 3.5 mph - N/A   Overcast
10:56 PM 26.6 °F - 19.4 °F 74% 29.93 in 10.0 mi Calm Calm - N/A   Overcast
11:16 PM 24.8 °F - 19.4 °F 80% 29.94 in 10.0 mi Calm Calm - N/A   Overcast
11:36 PM 24.8 °F - 19.4 °F 80% 29.95 in 10.0 mi Calm Calm - N/A   Overcast
11:56 PM 23.0 °F - 17.6 °F 80% 29.95 in 10.0 mi Calm Calm - N/A   Overcast